THOR ABLESTAR DEB, 225

Orbit data source: Space-Track

THOR ABLESTAR DEB, 225 is space debris in LEO originally from a launch on Thu, 29 Jun 1961 UTC launched from the Air Force Eastern Test Range (AFETR). Debris objects in space refer to the collection of defunct objects orbiting the Earth. Examples of debris include non-operational satellites, rocket bodies, and fragments generated from explosions, collisions, or faulty payload assembly.

Loading next visibility...
Identifier
225, 1961-015BM
Orbit
LEO
Country
Flag of USUS
Related business
Manufacturer
Unknown
Mission
Spacecraft
Bus & Motor
Unknown
Mass
Unknown
Launch date (UTC)
1961-06-29 (64 years ago)
Launch vehicle
Unknown
Launch site
Air Force Eastern Test Range (AFETR)
Object type
Payload
Rocket body
Debris
Shape & HBR
Unknown shape, 0.1 m
Radar Cross Section
Small (<0.1 m²)

Expand to show TLE details & history
Last TLE update: 1 day ago

TLE from 1 day ago
0 THOR ABLESTAR DEB
1 00225U 61015BM  25301.27841797  .00001404  00000-0  46978-3 0  9994
2 00225  66.7948 139.7645 0096334  28.4102 332.2205 14.37737980324384
Epoch: 2025-10-28T06:40Z
TLE epoch observation values (Epoch: 2025-10-28T06:40:55.312Z)
Latitude
0.00001°
Longitude
2.66584°
Altitude
707.352 km
Speed
7.534 km/s
True Right ascension
09h 19m 03s
True Declination
0° 00' 00"
Sunlit
Object was in daylight at epoch
Visualization orbit readout
Latitude
Unknown
Longitude
Unknown
Altitude
Unknown
Speed
Unknown
Apparent Right ascension
Unknown
Apparent Declination
Unknown
Sunlit
N/A
Visualization observer readout
Local Sidereal Time
06:34:16
Azimuth
Unknown
Elevation
Unknown
Doppler factor
Unknown
Orbital elements
Apogee altitude
833.146 km
Perigee altitude
695.533 km
Semi-major axis
7,142.477 km
Eccentricity
0.00963
Inclination
66.7948°
RAAN
139.7645°
Arg. of periapsis
28.4102°
True anomaly
331.70047°
Mean anomaly
332.2205°
Eccentric anomaly
331.96104°
Mean motion
3.59559 °/min
Orbital period
100.12 mins
BSTAR
0.00046978
Loading maneuver chart data...
Computing Atmospheric mass density...

Documentation

Showing up to 5 results
|